Temperature
15 15 15 15 15 15 15 15 15 15 15 15 15 15 15 15 15 15 15 15 15 15 15 15 15 15 15 15 15 15 15 15 15 15 15 15 15 15 15 15 15 15 15
15 15 15 15 15 15 15 15 15 15 15 15 15 15 15 15 15 15 15 15 15 15 15 15 15 15 15 15 15 15 15 15 15 15 15 15 15 15 15 15 15 15 15
15 15 15 15 15 15 15 15 15 14 14 14 14 14 14 14 14 14 14 14 14 15 15 15 15 15 15 15 15 15 15 15 15 15 15 15 15 15 15 15 15 15 15
15 15 15 15 15 15 14 14 14 14 14 14 14 14 14 14 14 14 14 14 14 14 14 14 14 14 14 14 14 14 14 14 14 14 14 14 14 14 14 14 14 14 14
15 14 14 14 14 14 14 14 14 14 14 14 14 14 14 13 14 14 14 14 14 14 14 14 14 14 14 14 14 14 14 14 14 14 14 14 14 14 14 14 14 14 14
15 14 14 14 14 14 14 14 14 14 13 14 13 13 13 13 13 13 13 13 13 13 13 13 14 14 14 14 14 14 14 14 14 14 14 14 14 14 14 13 13 13 14
14 14 14 14 14 14 14 14 14 13 13 13 13 13 13 13 13 13 13 13 13 13 13 13 13 13 13 13 13 13 13 13 13 13 13 13 13 13 13 13 13 13 13
14 14 14 14 14 14 13 13 13 13 13 13 13 13 13 13 13 13 13 13 12 12 13 13 13 13 13 13 13 13 13 13 13 13 13 13 13 13 13 13 13 13 13
14 14 14 14 14 13 13 13 13 13 13 13 12 12 12 12 12 12 12 12 12 12 12 12 12 12 12 12 12 13 12 12 12 12 12 12 12 12 12 12 12 12 12
14 14 14 14 13 13 13 13 13 13 13 12 12 12 12 12 12 12 12 12 12 12 12 12 12 12 12 12 12 12 12 12 12 12 12 12 12 12 12 12 12 12 12
14 14 14 14 13 13 13 13 13 12 12 12 12 12 12 12 12 11 12 12 12 12 12 12 12 12 12 12 12 12 12 12 12 12 12 12 12 12 12 12 12 12 12
14 14 14 13 13 13 13 13 12 12 12 12 12 12 11 11 11 11 11 11 11 11 11 11 11 11 11 11 11 11 11 12 12 12 12 12 12 12 12 12 12 12 12
14 14 13 13 13 13 13 12 12 12 12 12 12 11 11 11 11 11 11 11 11 11 11 11 11 11 11 11 11 11 11 11 11 11 11 11 11 11 11 11 11 11 11
14 14 13 13 13 13 13 12 12 12 12 11 11 11 11 11 11 11 11 11 10 11 11 11 11 11 11 11 11 11 11 11 11 11 11 11 11 11 11 11 11 11 11
14 13 13 13 13 13 12 12 12 12 11 11 11 11 11 11 11 11 10 10 10 10 10 10 10 10 10 10 10 11 11 11 11 11 11 11 11 11 11 11 11 11 11
13 13 13 13 13 12 12 12 12 12 11 11 11 11 11 11 10 10 10 10 10 10 10 10 10 10 10 10 10 10 10 10 10 10 10 10 10 10 10 10 10 10 10
13 13 13 13 12 12 12 12 12 11 11 11 11 10 10 10 10 10 10 10 10 10 9 10 10 10 10 10 10 10 10 10 10 10 10 10 10 10 10 10 10 10 10
13 13 12 12 12 12 12 12 12 11 11 11 10 10 10 10 10 10 10 10 9 9 9 9 9 9 9 9 9 10 10 10 10 10 10 10 9 9 10 10 9 10 10
13 12 12 12 12 12 12 12 11 11 11 11 10 10 10 10 10 9 9 9 9 9 9 9 9 9 9 9 9 9 9 9 9 9 9 9 9 9 9 9 9 9 9
12 12 12 12 12 12 11 11 11 11 11 10 10 10 10 10 9 9 9 9 9 9 9 8 8 9 9 9 9 9 9 9 9 9 9 9 9 9 9 9 9 9 9
12 12 12 12 11 11 11 11 11 11 11 10 10 10 10 9 9 9 9 9 9 8 8 8 8 8 8 8 9 9 8 9 9 9 9 8 8 8 8 8 8 8 8
12 12 12 11 11 11 11 11 11 10 10 10 10 10 9 9 9 9 8 8 8 8 8 8 8 8 8 8 8 8 8 8 8 8 8 8 8 8 8 8 8 8 8
12 12 11 11 11 11 11 11 10 10 10 10 10 10 9 9 9 9 8 8 8 8 8 8 8 8 8 8 8 8 8 8 8 8 8 8 8 8 8 8 8 8 8
11 11 11 11 11 11 10 10 10 10 10 9 9 9 9 9 9 8 8 8 8 8 8 8 8 8 8 8 7 7 7 7 7 7 7 7 7 8 7 7 7 7 7
11 11 11 11 10 10 10 10 10 10 9 9 9 9 9 8 8 8 8 8 8 8 8 7 7 7 7 7 7 7 7 7 7 7 7 6 7 7 7 7 7 7 7
10 10 10 10 10 10 10 10 9 9 9 9 9 9 8 8 8 8 8 8 8 8 7 7 7 7 7 7 7 7 7 7 6 6 6 6 6 6 6 7 7 7 7
Wind_Speed
3 3 4 5 5 6 5 5 5 6 6 7 7 7 6 7 7 7 7 10 10 9 8 7 7 7 6 6 6 6 6 6 5 5 5 6 6 6 6 7 6 6 7
3 3 3 4 4 5 5 5 5 4 4 5 6 6 6 7 7 7 8 9 11 11 10 8 7 7 6 6 7 7 6 6 6 6 6 6 5 5 5 6 6 6 6
4 3 3 3 3 5 5 5 5 5 4 4 5 5 5 6 7 7 8 8 8 10 10 9 8 7 6 6 7 7 7 7 7 7 7 6 5 5 5 5 5 5 6
4 4 3 2 3 5 4 3 3 4 4 4 4 4 4 5 6 7 7 8 8 8 9 10 9 8 6 6 6 6 6 6 7 7 7 6 6 6 5 5 5 5 6
4 4 3 2 4 4 3 3 3 3 3 3 3 3 4 4 4 5 6 7 7 7 8 9 9 9 7 6 6 6 6 6 6 6 6 6 6 6 5 5 5 5 6
4 5 3 3 4 3 3 3 3 3 2 2 3 4 3 3 4 4 4 6 7 8 8 8 8 7 9 8 7 6 6 5 6 5 5 5 5 5 5 5 5 5 5
5 5 3 3 3 3 2 3 3 3 3 2 3 3 3 3 4 4 4 4 6 7 8 8 7 7 7 9 9 8 6 6 6 6 5 5 5 5 5 5 5 5 4
4 4 4 2 2 3 3 3 2 2 2 2 2 2 2 3 3 4 4 4 4 5 6 7 7 7 7 7 8 8 8 7 6 5 5 5 5 5 5 5 5 5 5
3 4 4 3 2 3 2 2 2 3 1 1 2 2 2 1 2 3 3 4 4 4 4 5 7 7 7 7 7 8 8 7 6 5 5 5 5 4 4 5 5 5 5
2 3 4 4 3 2 2 2 2 2 3 1 1 2 1 2 1 1 3 3 3 4 4 4 5 6 7 7 7 7 7 7 6 6 5 5 5 5 5 5 5 5 5
1 2 3 4 3 2 2 2 2 2 2 2 2 1 1 2 1 1 1 3 3 3 3 3 3 4 6 6 5 6 7 7 7 6 6 5 5 5 5 5 5 5 5
1 1 3 3 3 2 2 2 2 3 2 2 2 2 2 2 1 1 1 1 2 2 3 2 3 3 4 5 5 6 6 6 6 6 6 5 5 5 5 4 4 4 4
2 3 3 3 3 3 3 3 3 2 2 2 2 2 2 2 2 2 2 1 1 2 2 2 2 3 3 4 4 5 5 5 5 5 5 4 4 4 4 4 4 4 4
4 3 4 4 3 3 3 3 2 2 2 2 2 2 1 1 2 2 3 2 0 1 2 3 2 2 3 3 4 4 4 5 5 4 4 4 3 3 4 4 4 4 3
4 4 4 4 3 3 3 3 2 2 2 2 2 2 2 1 2 2 2 2 3 1 2 2 2 2 3 2 3 3 3 4 5 4 4 3 3 3 3 3 3 3 3
3 4 4 4 4 3 3 3 2 2 3 2 2 2 2 1 1 2 2 1 2 3 2 1 2 2 2 2 3 2 2 4 4 4 4 4 3 2 2 2 2 3 3
4 4 5 5 4 4 4 4 3 3 3 3 2 3 3 2 2 2 2 2 2 2 2 1 1 2 1 2 2 2 3 2 2 3 3 3 2 2 1 1 1 1 2
4 5 5 5 5 4 4 5 5 4 4 4 4 3 3 2 2 2 2 2 2 2 2 2 1 1 1 2 1 2 2 2 2 2 2 2 2 2 2 1 0 1 1
4 4 4 5 5 5 5 5 5 5 5 5 4 4 4 4 3 2 3 3 2 2 2 2 1 1 1 1 1 2 2 2 2 2 2 2 2 2 2 1 1 1 2
3 5 5 5 5 5 5 5 5 4 4 4 4 5 5 6 6 5 4 4 3 3 2 2 1 1 1 1 0 0 1 2 2 3 3 2 2 2 2 2 2 2 2
4 4 4 5 5 5 5 6 5 5 4 4 4 4 5 6 7 6 5 5 5 4 3 2 2 1 1 1 1 1 1 2 2 1 1 2 2 2 2 3 3 3 3
4 3 4 5 5 5 7 8 6 5 5 5 5 4 4 5 6 7 7 7 7 6 5 4 3 3 3 3 2 2 1 0 2 1 0 2 1 2 2 2 3 3 3
3 3 4 4 5 6 7 8 8 5 5 5 5 4 4 4 5 4 5 5 6 7 7 6 5 5 4 5 4 2 2 2 3 2 1 2 1 2 3 4 4 4 4
3 4 4 4 4 6 7 8 9 6 5 5 5 5 5 4 5 5 4 4 4 4 6 5 6 6 5 5 5 5 4 2 1 1 1 2 2 2 3 4 5 5 4
4 4 4 4 5 6 7 7 7 4 4 5 4 4 5 5 6 6 5 4 3 3 4 6 6 5 5 5 4 3 2 2 2 2 1 2 2 2 2 3 5 5 4
4 4 4 4 5 5 7 8 7 4 4 3 3 3 5 6 6 7 6 5 5 5 3 2 3 3 2 3 5 4 5 3 2 2 2 2 2 1 2 2 2 3 3
Wind_Direction
70 65 62 61 58 58 61 58 58 52 45 42 47 50 46 44 39 35 32 37 39 39 39 44 45 46 53 60 67 72 71 68 68 72 75 75 75 72 73 72 70 69 67
94 79 65 63 61 62 65 66 60 56 45 45 43 44 44 44 42 40 35 33 34 35 37 43 45 47 51 63 70 72 72 72 72 68 68 77 78 77 75 74 68 66 68
105 99 84 69 63 69 72 70 60 57 52 48 42 37 40 41 42 39 37 33 29 30 33 36 39 49 53 62 69 72 72 76 74 71 71 74 73 77 79 77 70 67 67
114 105 91 75 72 74 74 69 59 60 50 47 43 32 31 34 37 37 39 35 33 30 29 30 35 44 54 59 68 71 70 75 73 71 70 70 71 74 77 79 78 75 74
118 113 100 89 82 77 66 70 60 64 64 52 51 42 31 31 25 32 32 31 32 32 30 27 32 39 47 55 63 67 68 70 72 71 71 73 70 67 67 69 74 73 74
126 119 108 96 94 82 65 68 75 56 62 57 61 48 29 26 29 30 25 28 29 31 33 32 32 33 39 47 54 57 62 67 70 67 71 72 72 73 70 68 71 69 70
134 126 111 99 96 96 97 97 92 72 49 37 58 32 15 23 32 25 22 26 24 26 35 36 37 37 37 41 46 50 51 57 62 62 64 67 70 72 70 68 68 65 65
145 143 131 126 119 108 95 92 93 89 49 39 79 74 14 355 5 16 18 26 19 25 31 32 35 34 39 41 38 41 40 44 50 53 59 62 66 69 65 64 69 67 63
157 150 146 134 134 134 137 135 121 120 118 36 57 110 127 239 316 344 6 19 19 26 25 26 31 29 34 38 35 34 35 36 39 44 49 55 62 68 68 69 70 72 66
165 156 148 142 143 142 146 166 144 129 127 116 47 51 109 152 150 330 339 359 16 26 23 24 22 25 30 32 33 33 31 27 31 32 42 53 59 62 63 68 69 70 66
171 156 152 146 149 156 164 162 140 132 131 141 141 129 90 66 86 141 294 332 355 5 16 19 17 17 20 24 26 30 31 29 31 32 40 48 57 60 62 64 62 63 62
233 177 155 158 159 162 170 170 159 148 147 141 148 150 149 145 176 159 200 282 318 332 357 14 11 3 9 14 18 25 29 29 30 31 34 38 49 54 57 52 56 58 58
219 220 187 178 175 175 165 151 154 168 169 164 172 177 174 177 161 156 158 197 312 330 347 353 346 348 3 8 4 16 22 22 26 29 31 32 41 52 53 53 51 51 53
214 208 193 187 182 171 166 154 159 179 172 179 184 176 174 195 170 168 165 154 87 343 350 318 329 341 348 351 350 10 14 18 21 25 30 33 45 54 55 54 49 49 44
208 193 191 189 187 176 168 162 176 192 174 184 195 189 191 202 186 183 164 160 162 202 279 296 311 330 329 330 343 2 8 10 13 19 27 31 46 55 58 50 49 44 37
199 187 190 190 187 183 178 173 185 194 178 197 193 187 203 207 193 176 171 163 161 167 213 280 275 309 327 332 339 345 353 6 14 20 25 36 45 47 50 48 47 41 33
195 194 193 191 193 193 187 181 190 188 195 210 208 199 215 184 172 171 154 147 147 149 190 285 316 325 342 343 350 349 351 358 1 18 22 25 26 27 17 35 47 49 29
204 201 194 193 198 197 192 191 197 196 200 210 212 202 217 188 180 172 165 171 171 167 173 235 311 329 310 314 335 10 1 349 337 352 13 12 4 1 357 335 326 10 353
210 201 192 194 200 197 194 200 200 201 207 214 211 207 208 184 194 190 186 188 183 169 157 176 267 309 316 338 357 0 5 357 348 344 356 349 353 356 345 323 293 318 318
208 205 205 204 203 200 197 198 199 206 212 219 215 211 203 194 202 199 199 196 176 161 152 155 221 279 286 303 26 319 336 345 347 350 347 348 344 339 323 315 294 281 283
211 206 204 210 204 200 201 196 198 204 207 216 221 218 213 205 203 197 198 190 175 171 169 175 208 240 255 232 231 220 250 317 329 342 347 348 352 340 312 293 281 275 271
211 211 210 214 215 217 209 203 195 203 210 215 222 226 223 222 223 215 211 195 182 180 184 187 208 218 232 224 213 203 198 343 298 305 357 313 347 306 292 286 283 276 273
211 213 219 216 225 229 221 214 206 199 208 216 220 217 221 217 216 212 220 216 209 208 197 191 199 219 217 211 190 202 208 212 240 252 203 283 302 288 284 286 289 280 276
216 218 222 223 229 236 231 225 219 203 205 213 214 211 212 219 208 197 192 203 218 226 216 208 209 221 216 201 195 199 201 203 280 274 159 247 279 277 298 286 288 282 274
226 225 223 222 230 248 241 234 219 195 207 219 217 210 205 208 213 195 178 196 222 247 238 227 231 234 228 209 180 149 155 169 258 259 204 210 252 277 288 286 283 281 272
232 228 230 227 229 240 238 232 215 192 203 217 221 222 217 210 209 195 187 191 214 233 225 236 254 256 229 198 191 183 185 191 213 244 210 200 229 259 292 282 287 291 286
Height
1534 1534 1534 1534 1533 1533 1533 1533 1533 1533 1532 1532 1532 1532 1532 1532 1532 1531 1531 1531 1530 1530 1529 1528 1528 1527 1527 1526 1526 1526 1527 1527 1527 1528 1528 1529 1529 1530 1532 1532 1533 1534 1534
1535 1534 1534 1534 1534 1534 1533 1533 1533 1533 1533 1533 1533 1533 1532 1532 1532 1532 1531 1531 1530 1530 1529 1528 1528 1527 1527 1526 1525 1526 1526 1527 1527 1527 1528 1528 1529 1530 1531 1532 1533 1533 1534
1535 1535 1535 1534 1534 1534 1534 1534 1533 1533 1533 1533 1533 1533 1532 1532 1532 1532 1531 1531 1530 1530 1529 1528 1528 1527 1526 1526 1526 1526 1526 1527 1527 1527 1528 1528 1529 1530 1531 1532 1532 1533 1534
1535 1535 1535 1535 1534 1534 1534 1534 1533 1533 1533 1533 1533 1533 1532 1532 1532 1532 1531 1531 1530 1530 1529 1528 1528 1527 1526 1526 1526 1526 1526 1527 1527 1527 1528 1528 1529 1530 1531 1531 1532 1533 1533
1536 1535 1535 1535 1534 1534 1534 1533 1533 1533 1533 1533 1533 1532 1532 1532 1532 1532 1531 1531 1530 1529 1529 1528 1528 1527 1526 1526 1526 1526 1526 1526 1527 1527 1527 1528 1529 1530 1530 1531 1532 1533 1533
1536 1535 1535 1534 1534 1534 1533 1533 1533 1533 1533 1533 1532 1532 1532 1532 1531 1531 1531 1531 1530 1529 1529 1528 1528 1527 1527 1526 1526 1526 1526 1526 1526 1527 1528 1528 1529 1530 1530 1531 1531 1532 1533
1535 1535 1535 1534 1534 1533 1533 1533 1533 1532 1532 1532 1532 1532 1532 1532 1531 1531 1531 1530 1530 1529 1529 1528 1528 1528 1527 1527 1527 1526 1526 1526 1526 1527 1527 1528 1529 1529 1530 1530 1531 1532 1532
1535 1534 1534 1534 1533 1533 1533 1532 1532 1532 1532 1532 1532 1532 1532 1533 1531 1531 1531 1530 1530 1529 1529 1528 1528 1528 1527 1527 1527 1527 1527 1527 1527 1527 1527 1528 1528 1529 1530 1530 1531 1532 1532
1534 1534 1533 1533 1533 1532 1532 1532 1532 1532 1531 1532 1532 1532 1532 1531 1531 1531 1530 1530 1529 1529 1529 1529 1528 1528 1528 1528 1527 1528 1527 1527 1527 1527 1527 1527 1528 1529 1529 1530 1531 1531 1532
1533 1533 1532 1532 1532 1532 1531 1531 1531 1531 1531 1531 1531 1531 1532 1531 1531 1530 1530 1529 1529 1529 1529 1529 1528 1528 1528 1528 1527 1527 1527 1527 1527 1527 1527 1527 1527 1528 1529 1530 1530 1531 1531
1532 1531 1531 1531 1531 1531 1530 1530 1530 1530 1530 1530 1530 1530 1531 1530 1530 1530 1529 1529 1529 1528 1528 1528 1528 1528 1528 1528 1528 1527 1527 1527 1527 1527 1527 1527 1527 1528 1529 1529 1530 1530 1531
1530 1530 1530 1530 1530 1529 1529 1529 1529 1529 1529 1529 1529 1529 1530 1529 1529 1529 1529 1528 1527 1527 1527 1527 1527 1527 1527 1527 1527 1527 1527 1527 1527 1527 1527 1527 1527 1528 1528 1529 1529 1529 1530
1528 1528 1528 1528 1528 1528 1528 1528 1528 1528 1528 1528 1528 1528 1528 1528 1528 1528 1528 1527 1526 1526 1526 1526 1526 1526 1526 1527 1527 1527 1527 1527 1527 1526 1526 1526 1527 1527 1527 1528 1528 1528 1528
1526 1526 1526 1526 1526 1526 1526 1526 1526 1526 1526 1526 1526 1526 1526 1527 1527 1527 1527 1526 1525 1525 1525 1525 1525 1525 1525 1525 1526 1526 1526 1526 1526 1526 1526 1526 1526 1526 1526 1527 1527 1527 1527
1523 1524 1524 1524 1524 1524 1524 1524 1524 1524 1524 1524 1524 1524 1524 1525 1525 1525 1525 1525 1525 1524 1523 1523 1524 1524 1524 1524 1524 1524 1525 1525 1525 1525 1524 1525 1525 1525 1525 1525 1525 1525 1525
1520 1521 1521 1521 1522 1522 1522 1522 1522 1522 1522 1522 1522 1522 1522 1522 1522 1522 1522 1522 1522 1523 1522 1522 1522 1522 1522 1522 1523 1523 1523 1523 1523 1523 1523 1523 1523 1523 1523 1523 1523 1524 1524
1517 1518 1518 1519 1519 1519 1519 1519 1519 1519 1519 1519 1519 1519 1520 1520 1520 1520 1520 1520 1520 1521 1520 1520 1520 1520 1520 1520 1521 1521 1521 1521 1522 1522 1522 1522 1522 1522 1522 1521 1521 1521 1522
1514 1514 1515 1515 1516 1516 1516 1516 1516 1516 1517 1516 1516 1517 1517 1517 1517 1518 1518 1518 1518 1518 1518 1517 1518 1518 1518 1519 1519 1519 1519 1520 1520 1520 1520 1520 1520 1520 1519 1519 1519 1519 1519
1511 1511 1511 1511 1512 1512 1513 1513 1513 1513 1513 1514 1514 1514 1514 1514 1514 1515 1515 1515 1516 1516 1516 1516 1515 1516 1516 1516 1516 1517 1517 1518 1518 1518 1518 1518 1518 1517 1517 1517 1517 1517 1517
1507 1507 1508 1508 1508 1508 1509 1510 1510 1510 1510 1510 1511 1511 1511 1511 1511 1512 1512 1513 1513 1513 1513 1514 1513 1513 1513 1514 1514 1514 1515 1515 1515 1515 1515 1515 1515 1515 1515 1514 1514 1514 1514
1504 1504 1504 1504 1504 1505 1505 1506 1506 1506 1506 1507 1507 1507 1508 1508 1508 1509 1509 1510 1510 1510 1511 1511 1511 1511 1511 1511 1511 1512 1512 1512 1512 1513 1513 1512 1512 1512 1512 1511 1511 1511 1511
1500 1500 1500 1500 1501 1501 1501 1502 1502 1503 1503 1503 1503 1504 1504 1504 1505 1506 1506 1507 1507 1507 1507 1508 1508 1508 1508 1509 1509 1509 1510 1509 1509 1510 1510 1509 1509 1509 1509 1509 1508 1508 1507
1496 1496 1496 1496 1496 1497 1497 1498 1498 1499 1499 1499 1499 1500 1500 1501 1501 1502 1503 1503 1504 1504 1505 1505 1505 1505 1505 1506 1506 1506 1507 1507 1507 1507 1507 1506 1506 1506 1506 1505 1505 1505 1504
1491 1491 1491 1492 1492 1493 1494 1494 1494 1495 1495 1495 1495 1495 1496 1497 1497 1498 1499 1499 1500 1500 1501 1501 1501 1502 1502 1503 1503 1504 1504 1504 1504 1504 1504 1503 1503 1503 1503 1502 1502 1502 1501
1487 1487 1487 1487 1488 1488 1489 1490 1490 1490 1490 1490 1491 1492 1492 1493 1494 1494 1495 1495 1496 1496 1497 1497 1498 1498 1499 1499 1500 1500 1500 1500 1500 1500 1500 1500 1499 1499 1499 1499 1499 1498 1498
1483 1483 1483 1483 1483 1484 1485 1485 1486 1486 1486 1486 1487 1487 1488 1488 1489 1490 1490 1491 1491 1492 1493 1493 1494 1494 1494 1495 1495 1496 1496 1496 1496 1496 1496 1496 1496 1496 1495 1495 1495 1495 1495